OpenBCM V1.08-5-g2f4a (Linux)

Packet Radio Mailbox

IZ3LSV

[San Dona' di P. JN]

 Login: GUEST





  
I0OJJ  > KEPS     16.04.25 02:25l 349 Lines 16626 Bytes #27 (0) @ AMSAT
BID : ORB25106.1
Read: GUEST
Subj: 2Line Orbital Elements 25106.AMSAT
Path: IZ3LSV<I0OJJ
Sent: 250416/0025z @:I0OJJ.ITA.EU [Rome] obcm1.08-6-g5b69
From: I0OJJ @ I0OJJ.ITA.EU (Gustavo)
To:   KEPS @ AMSAT
X-Info: This message was generated automatically


QST de W1STR

AMSAT Orbital Elements for Amateur Satellites in TLE Format
From Orbital Analysis Office
New England Sci-Tech STEM Education Center
Natick, MA April 16, 2025
To all radio amateurs


These element sets describe the orbits of various satellites 
in use by the amateur radio community. For details see:
www.amsat.org/keplerian-elements-formats/

A daily update of element sets is available at:
www.amsat.org/tle/daily-bulletin.txt
or without bulletin text:
www.amsat.org/tle/dailytle.txt


AO-07
1 07530U 74089B   25105.59750213 -.00000041  00000-0  31200-4 0  9994
2 07530 101.9951 109.2734 0011942 225.8401 252.0737 12.53688339306933
UO-11
1 14781U 84021B   25105.84344956  .00003470  00000-0  37291-3 0  9991
2 14781  97.7500  73.3197 0008586 146.9856 213.1899 14.89162455214495
AO-27
1 22825U 93061C   25105.39162109  .00000302  00000-0  13251-3 0  9992
2 22825  98.7415 166.6592 0007252 274.9164  85.1190 14.30775027645824
FO-29
1 24278U 96046B   25105.74495840  .00000039  00000-0  72310-4 0  9991
2 24278  98.5815   6.8432 0350748 124.5697 238.9068 13.53244009415608
NOAA-15
1 25338U 98030A   25105.83827941  .00000386  00000-0  17634-3 0  9997
2 25338  98.5406 132.2746 0010875 154.0125 206.1603 14.26942509400597
GO-32
1 25397U 98043D   25105.89763924  .00000230  00000-0  11986-3 0  9994
2 25397  98.9671  83.8875 0001819  42.8549 317.2771 14.24295691390720
ISS
1 25544U 98067A   25105.84059654  .00015225  00000-0  27824-3 0  9995
2 25544  51.6364 255.8359 0005232  44.1584 315.9822 15.49576817505498
NO-44
1 26931U 01043C   25105.87796692  .00000521  00000-0  22615-3 0  9993
2 26931  67.0498 269.2682 0005579 270.5895  89.4568 14.31697121229439
SO-50
1 27607U 02058C   25105.80963907  .00003144  00000-0  41056-3 0  9993
2 27607  64.5564   9.5763 0049797 347.1005  12.8822 14.81425811201326
CO-55
1 27844U 03031E   25105.59134843  .00000780  00000-0  35906-3 0  9993
2 27844  98.6785 114.5710 0009426 354.9920   5.1163 14.23938723130813
CO-57
1 27848U 03031J   25105.02210749  .00000653  00000-0  30742-3 0  9997
2 27848  98.6812 114.0563 0009726  13.7600 346.3842 14.23280643130463
RS-22
1 27939U 03042A   25105.91061208  .00002889  00000-0  46638-3 0  9996
2 27939  98.3234 274.0601 0011667 177.5610 340.0090 14.72160434152780
NOAA-18
1 28654U 05018A   25105.83747673  .00000409  00000-0  24001-3 0  9990
2 28654  98.8428 185.9279 0013057 285.2920  74.6809 14.13575846 26018
CO-58
1 28895U 05043F   25105.89348090  .00004175  00000-0  69140-3 0  9998
2 28895  98.2411 249.5937 0015788 119.4381 240.8403 14.70750817 39131
CO-65
1 32785U 08021C   25105.45535028  .00010792  00000-0  79080-3 0  9997
2 32785  97.7825  76.2525 0011397  46.8475 313.3701 15.03669002920794
AAUSAT2
1 32788U 08021F   25105.49320547  .00274806  00000-0  21664-2 0  9994
2 32788  97.6032 101.1672 0008788 131.2476 228.9544 15.70563188924801
CO-66
1 32791U 08021J   25104.86981852  .00022425  00000-0  11372-2 0  9993
2 32791  97.7257  83.7460 0004969  37.0288 323.1287 15.16947358922047
RS-30
1 32953U 08025A   25105.83712057  .00000044  00000-0  24674-3 0  9997
2 32953  82.4991 261.2237 0019956 163.0184 197.1568 12.43162452766739
NOAA-19
1 33591U 09005A   25105.83501241  .00000383  00000-0  22781-3 0  9999
2 33591  99.0013 170.2230 0014372 155.0273 205.1597 14.13340923834374
SRMSAT
1 37841U 11058D   25105.37524713  .00000627  00000-0  19684-3 0  9999
2 37841  19.9706 128.6087 0011750 176.6780 210.5252 14.11411431697301
ZACUBE-1
1 39417U 13066B   25105.81943618  .00008647  00000-0  76172-3 0  9994
2 39417  97.7759  63.1650 0042964 233.3772 126.3494 14.95994773616722
Delfi-N3xt
1 39428U 13066N   25105.48453970  .00008854  00000-0  92001-3 0  9995
2 39428  97.8365  23.7911 0086053 180.6704 179.4411 14.87399829611068
GOMX-1
1 39430U 13066Q   25105.80317538  .00003846  00000-0  60324-3 0  9992
2 39430  97.6902 327.8162 0133335   8.4296 351.9105 14.67373056607379
LO-74
1 39440U 13066AA  25105.80092334  .00009658  00000-0  98608-3 0  9990
2 39440  97.8466  50.7741 0063018   2.8211 357.3350 14.89338136614483
AO-73
1 39444U 13066AE  25105.84812526  .00012386  00000-0  94985-3 0  9997
2 39444  97.7709  67.6159 0040333 209.8832 150.0089 15.01303038615968
DTUSAT-2
1 40030U 14033W   25105.87501464  .00013009  00000-0  86523-3 0  9996
2 40030  98.0507  75.1007 0007435 238.9413 121.1084 15.07280722588661
EO-80
1 40032U 14033Y   25105.89800412  .00012562  00000-0  83388-3 0  9994
2 40032  98.0409  74.8559 0008753 169.0799 191.0619 15.07353011588658
LILACSAT-2
1 40908U 15049K   25105.83573978  .00018907  00000-0  51727-3 0  9993
2 40908  97.5106 124.9041 0009335  10.5492 349.5946 15.37361653529818
IO-86
1 40931U 15052B   25038.81889873  .00001817  00000-0  15548-3 0  9993
2 40931   6.0001 108.1159 0012838 187.7041 172.2889 14.78568669506492
Horyu-4
1 41340U 16012D   25105.48833130  .00029459  00000-0  86417-3 0  9993
2 41340  30.9941 141.6943 0008772 202.8384 157.1871 15.33925475504316
Lapan A3
1 41603U 16040E   25105.87740597  .00007142  00000-0  25274-3 0  9992
2 41603  97.1389 112.6448 0013162 102.9570 257.3141 15.29355816489421
CAS-2T
1 41847U 16066G   25105.29435523  .00001914  00000-0  28175-3 0  9990
2 41847  98.4217 180.2323 0346333 345.9539  13.2202 14.43327850443048
CAS-4B
1 42759U 17034B   25105.84765569  .00080994  00000-0  11220-2 0  9993
2 42759  43.0091 286.3913 0019899 269.6050  90.2532 15.55897111434052
CAS-4A
1 42761U 17034D   25105.85343238  .00089078  00000-0  11934-2 0  9996
2 42761  43.0126 283.9995 0021289 274.0942  85.7488 15.56722425434070
TechnoSat
1 42829U 17042E   25105.53234622  .00006166  00000-0  48281-3 0  9994
2 42829  97.3926 276.8749 0015331 104.4163 255.8765 15.01263510422468
AO-91
1 43017U 17073E   25105.58134859  .00014313  00000-0  74630-3 0  9994
2 43017  97.5332 337.7567 0175586 354.4241   5.5025 15.03632519400948
S-Net D
1 43186U 18014G   25105.61882339  .00009269  00000-0  55619-3 0  9994
2 43186  97.5665   9.0992 0010848  59.8924 300.3380 15.11104347394076
S-Net B
1 43187U 18014H   25105.62353171  .00008876  00000-0  53299-3 0  9998
2 43187  97.5671   9.0729 0011483  55.5720 304.6594 15.11086212394079
S-Net A
1 43188U 18014J   25105.61939812  .00009220  00000-0  55313-3 0  9993
2 43188  97.5679   9.2117 0011372  56.0616 304.1693 15.11109510394070
S-Net C
1 43189U 18014K   25105.29471818  .00009234  00000-0  55423-3 0  9992
2 43189  97.5696   8.8952 0012822  50.0955 310.1400 15.11078821392579
Ten-Koh
1 43677U 18084G   25105.31094173  .00005010  00000-0  40525-3 0  9994
2 43677  98.0937 275.3675 0009642 104.7292 255.5000 15.00223487351958
PO-101
1 43678U 18084H   25105.88919485  .00005433  00000-0  46505-3 0  9992
2 43678  98.0998 279.9448 0009967 109.1896 251.0405 14.97990180352196
QO-100
1 43700U 18090A   25105.82536155  .00000155  00000-0  00000+0 0  9990
2 43700   0.0140 254.6871 0002053 171.3141 101.1805  1.00275077 23631
MinXSS-2
1 43758U 18099A   25105.07329539  .00025749  00000-0  10745-2 0  9991
2 43758  97.5058 170.9967 0011217 357.2633   2.8540 15.23590493348514
AO-95
1 43770U 18099N   25105.42756888  .00016546  00000-0  86291-3 0  9990
2 43770  97.4968 164.1525 0011769  51.7800 308.4490 15.15971829348196
RANGE-A
1 43773U 18099R   25105.88722189  .00009228  00000-0  59539-3 0  9994
2 43773  97.4536 155.8789 0011883  27.2471 332.9379 15.08438587347972
MOVE-II
1 43780U 18099Y   25105.63337817  .00137815  00000-0  19248-2 0  9991
2 43780  97.4702 177.9214 0002169 266.5043  93.5964 15.56384779349207
SNUSat 2
1 43782U 18099AA  25105.68946211  .00012368  00000-0  69186-3 0  9994
2 43782  97.4654 161.6009 0011462 351.0535   9.0490 15.13549726348190
SnugLite
1 43784U 18099AC  25105.66732780  .00014303  00000-0  74128-3 0  9991
2 43784  97.4466 161.0372 0003011  17.0715 343.0619 15.16279362348317
ITASat 1
1 43786U 18099AE  25105.70300219  .00011125  00000-0  64864-3 0  9991
2 43786  97.4618 161.2793 0015225  41.8635 318.3756 15.12044308348169
EAGLET 1
1 43790U 18099AJ  25105.57126872  .00007882  00000-0  50891-3 0  9992
2 43790  97.4812 161.2774 0012440  25.4398 334.7441 15.08456207347778
ESEO
1 43792U 18099AL  25105.59185039  .00003365  00000-0  25839-3 0  9992
2 43792  97.4552 155.2855 0011588   5.3499 354.7848 15.02357106347567
CSIM
1 43793U 18099AM  25105.47696648  .00129499  00000-0  17955-2 0  9999
2 43793  97.4881 179.9229 0004988 284.4959  75.5742 15.56602773349024
JO-97
1 43803U 18099AX  25105.68620331  .00017255  00000-0  81987-3 0  9993
2 43803  97.4716 165.2941 0006498 347.7547  12.3529 15.19264525348430
Suomi 100
1 43804U 18099AY  25105.41842763  .00016575  00000-0  83737-3 0  9999
2 43804  97.4779 164.4729 0011627 346.7288  13.3637 15.17092488348331
ISAT
1 43879U 18111D   25105.31645170  .00032199  00000-0  12023-2 0  9997
2 43879  97.5995  18.5819 0011098  45.1296 315.0842 15.27262151345259
UWE-4
1 43880U 18111E   25105.48937273  .00023600  00000-0  97712-3 0  9991
2 43880  97.5935  17.5986 0014505  51.2900 308.9631 15.23836288345234
Sparrow
1 43881U 18111F   25105.73302347  .00029679  00000-0  10728-2 0  9991
2 43881  97.6124  21.6813 0010067  76.9193 283.3169 15.28359841343407
Prox-1
1 44339U 19036A   25105.03605001  .00018428  00000-0  24290-2 0  9992
2 44339  23.9969  66.2869 0007443 161.2295 198.8477 14.78505895309787
SONATE
1 44400U 19038Q   25105.63155822  .00136137  00000-0  99658-3 0  9999
2 44400  97.6993 126.0610 0009691 102.8863 257.3482 15.72721602320881
Taurus 1
1 44530U 19059C   25105.83035107  .00013234  00000-0  24808-2 0  9997
2 44530  98.6002 242.6796 0010606 199.5727 160.5068 14.64863204295923
